Meteo Giornale » Osservazioni meteo Grecia » Chrysoupoli
ore: 21:50 - Osservazioni Meteo Chrysoupoli
Lat. 40° 59' N Lon. 24° 36' E Alt. 5 metri s.l.m.
25 °C
Nuvoloso
Temp. 24 Ore
20 °C
30 °C
Nord
0 Km/h
Dew point 21 °C
Umidità 78 %
Visibilità 10 Km
Il sole sorge alle ore 06:48
Il sole tramonta alle ore 19:54
| Data e Ora | Cielo e Fenomeni | T °C | DP °C | Um. % | Pres. hPa | Vis. km | Vento km/h | |
|---|---|---|---|---|---|---|---|---|
| Oggi h: 21:50 | Nuvoloso | 25 | 21 | 78 | 1014 | 10 | N 0 | |
| Oggi h: 21:20 | Nuvoloso | 26 | 21 | 73 | 1015 | 10 | N 0 | |
| Oggi h: 20:50 | Nuvoloso | 26 | 21 | 73 | 1014 | 10 | N 0 | |
| Oggi h: 20:20 | Poco Nuvoloso | 27 | 20 | 65 | 1014 | 10 | N 0 | |
| Oggi h: 19:50 | Poco Nuvoloso | 27 | 20 | 65 | 1014 | 10 | N 0 | |
| Oggi h: 19:20 | Poco Nuvoloso | 28 | 20 | 61 | 1013 | 10 | N 0 | |
| Oggi h: 18:50 | Poco Nuvoloso | 29 | 21 | 62 | 1013 | 10 | S 7.4 | |
| Oggi h: 18:20 | Poco Nuvoloso | 29 | 21 | 62 | 1013 | 10 | S/SO 9.3 | |
| Oggi h: 17:50 | Poco Nuvoloso | 29 | 21 | 62 | 1013 | 10 | S/SO 9.3 | |
| Oggi h: 17:20 | Poco Nuvoloso | 29 | 21 | 62 | 1014 | 10 | S/SO 7.4 | |
| Oggi h: 16:50 | Poco Nuvoloso | 30 | 21 | 58 | 1014 | 10 | S 9.3 | |
| Oggi h: 16:20 | Poco Nuvoloso | 30 | 21 | 58 | 1014 | 10 | S/SO 9.3 | |
| Oggi h: 15:50 | Poco Nuvoloso | 30 | 21 | 58 | 1014 | 10 | S/SO 9.3 | |
| Oggi h: 15:20 | Poco Nuvoloso | 30 | 20 | 55 | 1014 | 10 | S/SO 11.1 | |
| Oggi h: 14:50 | Poco Nuvoloso | 30 | 20 | 55 | 1014 | 10 | S/SO 11.1 | |
| Oggi h: 14:20 | Poco Nuvoloso | 30 | 19 | 51 | 1015 | 10 | S 13 | |
| Oggi h: 13:50 | Poco Nuvoloso | 30 | 19 | 51 | 1015 | 10 | S/SE 13 | |
| Oggi h: 13:20 | Poco Nuvoloso | 30 | 19 | 51 | 1015 | 10 | S/SE 13 | |
| Oggi h: 12:50 | Sereno | 29 | 19 | 54 | 1015 | 10 | S/SE 13 | |
| Oggi h: 12:20 | Sereno | 29 | 19 | 54 | 1015 | 10 | E/SE 13 | |
| Oggi h: 11:50 | Sereno | 28 | 19 | 58 | 1015 | 10 | E/SE 13 | |
| Oggi h: 11:20 | Sereno | 28 | 19 | 58 | 1015 | 10 | E 11.1 | |
| Oggi h: 10:50 | Sereno | 28 | 19 | 58 | 1015 | 10 | E 11.1 | |
| Oggi h: 10:20 | Sereno | 27 | 19 | 61 | 1015 | 10 | E/SE 11.1 | |
| Oggi h: 09:50 | Sereno | 26 | 19 | 65 | 1015 | 10 | E 13 | |
| Oggi h: 09:20 | Sereno | 26 | 18 | 61 | 1015 | 10 | E/NE 9.3 | |
| Oggi h: 08:50 | Sereno | 25 | 18 | 65 | 1015 | 10 | E/NE 9.3 | |
| Oggi h: 08:20 | Sereno | 24 | 17 | 64 | 1015 | 10 | E 7.4 | |
| Oggi h: 07:50 | Sereno | 22 | 17 | 73 | 1015 | 10 | E/NE 7.4 | |
| Oggi h: 07:20 | Sereno | 21 | 13 | 60 | 1015 | 10 | NE 7.4 | |
| Oggi h: 06:50 | Sereno | 20 | 13 | 64 | 1014 | 10 | NE 7.4 | |
| Oggi h: 06:20 | Sereno | 20 | 15 | 72 | 1014 | 10 | N 0 | |
| Oggi h: 05:50 | Sereno | 20 | 15 | 72 | 1014 | 10 | N 0 | |
| Oggi h: 05:20 | Sereno | 20 | 15 | 72 | 1014 | 10 | E/NE 11.1 | |
| Oggi h: 04:50 | Sereno | 20 | 15 | 72 | 1014 | 10 | E/NE 7.4 | |
| Oggi h: 03:50 | Sereno | 21 | 16 | 73 | 1014 | 10 | NE 7.4 | |
| Oggi h: 02:50 | Sereno | 22 | 16 | 68 | 1014 | 10 | E/NE 9.3 | |
| Oggi h: 01:50 | Sereno | 21 | 18 | 82 | 1015 | 10 | NE 9.3 | |
| Oggi h: 00:50 | Sereno | 22 | 18 | 78 | 1015 | 10 | E 9.3 | |
| Ieri h: 23:50 | Poco Nuvoloso | 22 | 18 | 78 | 1015 | 10 | N 0 | |
| Ieri h: 23:20 | Poco Nuvoloso | 22 | 18 | 78 | 1014 | 10 | N 0 | |
| Ieri h: 22:50 | Nuvoloso | 23 | 18 | 73 | 1014 | 10 | N 0 | |



